Location: City of Moscow
(46.7306°N, 116.9989°W)
Time: 13:53:46
(UTC+00:00)

Cosmos 1626 Rocket - Pass Details

Date: 18 March 2026
Orbit: 595 x 624 km, 82.5° (Epoch: 18 April)

Event Time Altitude Azimuth Distance (km) Brightness Sun altitude
Rises 11:56:08 0° 352° (N) 2,895 7.2 -20.7°
Reaches altitude 10° 11:58:23 10° 355° (N) 1,980 6.3 -20.3°
Maximum altitude 12:02:45 69° 79° (E) 654 3.8 -19.6°
Drops below altitude 10° 12:07:03 10° 164° (SSE) 1,946 6.1 -18.9°
Sets 12:09:15 0° 166° (SSE) 2,840 6.9 -18.6°
